Weather in Truro

Canada     45°21′58″N   63°16′22″W
temp.,
°C
wind,
m/s
gust,
m/s
humid.,
%
clouds,
%
prec.,
mm/h
press.,
hPa
HPBL,
m
30 november, tue
tue3023:00+3nw3898100 0.0 998462
02:00+2nw3998100 0.2 998522
05:00+2wnw4997100 0.1 998882
08:00−1wnw51191100 0.6 1000669
11:000w51087100 0.4 1002937
14:00−1w6127998 0.6 10041175
17:00−2wsw5127277 0.1 10071191
20:00−2wsw4107985 0.1 1011782
1 december, wed
wed123:00−2sw379398 0.2 1012436
02:00−2sw1489100 0.6 1013205
05:00−2sse1384100 0.0 1013115
08:00−1s1486100 0.1 1014198
11:00+2ssw258896 0.5 1014509
14:00+4wsw3572100 0.5 1014942
17:00+2s279196 0.0 1015210
20:000ssw269645 0.0 1017130
2 december, thu
thu223:00+1sw15905 0.1 1019162
02:00−2s149677 0.1 102073
05:00−1s1388100 0.0 102097
08:000se1285100 0.0 102041
11:00+4sse3674100 0.0 1018310
14:00+5se31090100 0.1 1012693
17:00+5ese389899 3.3 1009256
20:00+4ese229997 11.6 100549
3 december, fri
fri323:00+4s2899100 0.0 1002228
02:00+8s51395100 0.2 9981128
05:00+8s61691100 0.6 9931520
08:00+10s71593100 4.1 9861138
11:00+5w4119197 3.1 986992
14:00+5wsw7147767 3.9 9861608
17:00+1w71487100 0.3 9881581
20:00−1w81574100 0.5 9911560
4 december, sat
sat423:00−3w91668100 0.1 9931459
02:00−5w9166498 0.1 9951586
05:00−6w9166198 0.0 9961614
08:00−7w9175972 0.1 9981623
11:00−3wnw919496 0.0 10041373
14:00−2w919410 0.0 10061651
17:00−3w7154660 0.0 10101350
20:00−3w6134720 0.0 10121290